St. Charles, IL

6:56 PM CDT on April 28, 2017 (GMT -0500)
Saint Charles County Smartt

Weather History for KSET - May, 2013

Change the Weather History Date:

Saturday, May 18, 2013

  Actual Average (KSTL) Record (KSTL)
Temperature  
Mean Temperature 72 °F -  
Max Temperature 82 °F 78 °F 94 °F (1996)
Min Temperature 62 °F 57 °F 39 °F (2002)
Cooling Degree Days 6    
Growing Degree Days 22 (Base 50)    
Moisture  
Dew Point 63 °F    
Average Humidity 81    
Maximum Humidity 100    
Minimum Humidity 54    
Precipitation  
Precipitation 0.01 in - - ()
Sea Level Pressure  
Sea Level Pressure 29.96 in    
Wind  
Wind Speed 6 mph (ESE)    
Max Wind Speed 13 mph    
Max Gust Speed -    
Visibility 6 miles    
Events      
Averages and records for this station are not official NWS values.
T = Trace of Precipitation, MM = Missing Value Source: NWS Daily Summary

Daily Weather History Graph

Daily Weather History Graph

Search for Another Location

Airport or City:

Trip Planner

Search our weather history database for the weather conditions in past years. The results will help you decide how hot, cold, wet, or windy it might be!

Date:

Astronomy

May. 18, 2013 Rise Set
Actual Time 5:46 AM CDT 8:10 PM CDT
Civil Twilight 5:16 AM CDT 8:40 PM CDT
Nautical Twilight 4:38 AM CDT 9:18 PM CDT
Astronomical Twilight 3:57 AM CDT 10:00 PM CDT
Moon 1:17 PM CDT (5/18) 1:35 AM CDT (5/18)
Length of Visible Light 15h 24m
Length of Day
14h 24m
First Quarter, 55% of the Moon is Illuminated
May 18
First Quarter
May 24
Full
May 31
Last Quarter
Jun 8
New
Jun 16
First Quarter

Hourly Weather History & Observations

Time (CDT) Temp. Heat Index Dew Point Humidity Pressure Visibility Wind Dir Wind Speed Gust Speed Precip Events Conditions
12:54 AM 66.0 °F - 63.0 °F 90% 29.96 in 7.0 mi SE 4.6 mph - N/A   Clear
1:54 AM 63.0 °F - 61.0 °F 93% 29.95 in 4.0 mi East 3.5 mph - N/A   Clear
2:54 AM 63.0 °F - 62.1 °F 97% 29.96 in 4.0 mi East 4.6 mph - N/A   Clear
3:54 AM 63.0 °F - 62.1 °F 97% 29.96 in 2.5 mi ENE 5.8 mph - N/A   Clear
4:03 AM 62.6 °F - 62.6 °F 100% 29.96 in 3.0 mi East 4.6 mph - N/A   Clear
4:14 AM 62.6 °F - 62.6 °F 100% 29.96 in 2.5 mi East 4.6 mph - N/A   Clear
4:54 AM 62.1 °F - 61.0 °F 96% 29.95 in 2.5 mi East 6.9 mph - N/A   Clear
5:13 AM 64.4 °F - 62.6 °F 94% 29.96 in 3.0 mi East 6.9 mph - N/A   Scattered Clouds
5:30 AM 62.6 °F - 62.6 °F 100% 29.96 in 3.0 mi East 4.6 mph - N/A   Mostly Cloudy
5:42 AM 62.6 °F - 60.8 °F 94% 29.97 in 3.0 mi East 5.8 mph - 0.01 in   Partly Cloudy
5:50 AM 62.6 °F - 60.8 °F 94% 29.97 in 2.0 mi East 5.8 mph - 0.01 in   Partly Cloudy
5:54 AM 62.1 °F - 61.0 °F 96% 29.97 in 2.0 mi East 4.6 mph - 0.01 in   Partly Cloudy
6:17 AM 62.6 °F - 62.6 °F 100% 29.99 in 2.5 mi East 4.6 mph - N/A   Mostly Cloudy
6:46 AM 64.4 °F - 64.4 °F 100% 29.99 in 3.0 mi ESE 4.6 mph - N/A   Overcast
6:54 AM 66.0 °F - 64.0 °F 93% 29.98 in 3.0 mi ESE 4.6 mph - N/A   Overcast
7:54 AM 68.0 °F - 64.9 °F 90% 29.99 in 4.0 mi SSE 5.8 mph - N/A   Overcast
8:20 AM 68.0 °F - 64.4 °F 88% 30.00 in 4.0 mi SSE 5.8 mph - N/A   Overcast
8:54 AM 69.1 °F - 64.9 °F 87% 30.00 in 5.0 mi SSE 6.9 mph - N/A   Overcast
9:54 AM 73.9 °F - 64.9 °F 73% 29.99 in 7.0 mi SE 5.8 mph - N/A   Mostly Cloudy
10:54 AM 73.9 °F - 64.0 °F 71% 29.99 in 9.0 mi SE 8.1 mph - N/A   Mostly Cloudy
11:03 AM 73.4 °F - 62.6 °F 69% 30.00 in 9.0 mi Calm Calm - N/A   Scattered Clouds
11:12 AM 73.4 °F - 62.6 °F 69% 30.00 in 9.0 mi ESE 5.8 mph - N/A   Mostly Cloudy
11:43 AM 75.2 °F - 62.6 °F 65% 29.99 in 10.0 mi SE 6.9 mph - N/A   Mostly Cloudy
11:54 AM 75.9 °F - 63.0 °F 64% 29.98 in 9.0 mi SSE 3.5 mph - N/A   Mostly Cloudy
12:54 PM 78.1 °F - 63.0 °F 60% 29.95 in 10.0 mi ESE 3.5 mph - N/A   Mostly Cloudy
2:54 PM 79.0 °F - 63.0 °F 58% 29.92 in 10.0 mi ESE 11.5 mph - N/A   Overcast
3:54 PM 81.0 °F 82.2 °F 63.0 °F 54% 29.92 in 10.0 mi ESE 9.2 mph - N/A   Mostly Cloudy
5:54 PM 80.1 °F 81.2 °F 62.1 °F 54% 29.90 in 10.0 mi SE 6.9 mph - N/A   Partly Cloudy
6:54 PM 80.1 °F 81.5 °F 63.0 °F 56% 29.89 in 10.0 mi ESE 11.5 mph - N/A   Clear
7:54 PM 77.0 °F - 63.0 °F 62% 29.88 in 10.0 mi ESE 10.4 mph - N/A   Clear
8:54 PM 75.0 °F - 64.0 °F 69% 29.88 in 10.0 mi East 10.4 mph - N/A   Mostly Cloudy
9:54 PM 75.0 °F - 64.0 °F 69% 29.88 in 10.0 mi ESE 12.7 mph - N/A   Scattered Clouds
11:54 PM 71.1 °F - 64.0 °F 78% 29.89 in 10.0 mi SE 8.1 mph - N/A   Scattered Clouds